Private Wetterstation Wechselburg
Wetterdaten: Samstag, 07.12.2019
Datum Zeit Temp. +2m Bodentemp. Temp.+5cm Temp. Wind Windchill X Diff Temp. Feuchte +2m Feuchte +5cm Luftdruck Regen Wind Richtung Richtung Sonnenschein Taupunkt Windchill Windben
07.12.2019 00:00 5,7 C 5,1 C 4,7 C 4,8 C 2,4 C 0,0 C 80 % 85 % 1009,4 hPa 0,0 l/m 8,9 km/h (2 Bft) O-NO 67 0 min 2,5 C -0,2 C 14,2 km/h (3 Bft)
07.12.2019 00:05 5,7 C 5,1 C 4,7 C 4,9 C 2,6 C 0,0 C 80 % 85 % 1009,4 hPa 0,0 l/m 8,2 km/h (2 Bft) N-NO 22 0 min 2,5 C 0,3 C 10,9 km/h (2 Bft)
07.12.2019 00:10 5,6 C 5,1 C 4,7 C 4,8 C 2,4 C 0,0 C 80 % 85 % 1009,4 hPa 0,0 l/m 8,7 km/h (2 Bft) O-NO 67 0 min 2,4 C -0,1 C 7,1 km/h (2 Bft)
07.12.2019 00:15 5,6 C 5,1 C 4,7 C 4,7 C 2,0 C 0,0 C 80 % 85 % 1009,4 hPa 0,0 l/m 10,3 km/h (2 Bft) SO 135 0 min 2,4 C -1,0 C 22,7 km/h (4 Bft)
07.12.2019 00:20 5,6 C 5,1 C 4,6 C 4,7 C 1,9 C 0,0 C 80 % 85 % 1008,6 hPa 0,0 l/m 10,0 km/h (2 Bft) W-SW 247 0 min 2,4 C -1,0 C 11,6 km/h (2 Bft)
07.12.2019 00:25 5,6 C 5,1 C 4,6 C 4,7 C 2,3 C 0,0 C 80 % 85 % 1008,6 hPa 0,0 l/m 8,5 km/h (2 Bft) N-NW 337 0 min 2,4 C -0,2 C 8,5 km/h (2 Bft)
07.12.2019 00:30 5,6 C 5,1 C 4,6 C 4,7 C 1,9 C 0,0 C 80 % 85 % 1008,6 hPa 0,0 l/m 10,0 km/h (2 Bft) N-NW 337 0 min 2,4 C -1,0 C 12,7 km/h (3 Bft)
07.12.2019 00:35 5,6 C 5,1 C 4,5 C 4,4 C 1,9 C 0,0 C 80 % 85 % 1008,6 hPa 0,0 l/m 9,7 km/h (2 Bft) S 180 0 min 2,4 C -1,0 C 23,2 km/h (4 Bft)
07.12.2019 00:40 5,4 C 5,2 C 4,4 C 4,5 C 2,1 C 0,0 C 81 % 86 % 1008,6 hPa 0,0 l/m 9,0 km/h (2 Bft) W-SW 247 0 min 2,4 C -0,6 C 8,2 km/h (2 Bft)
07.12.2019 00:45 5,5 C 5,2 C 4,3 C 4,6 C 1,7 C 0,0 C 81 % 86 % 1008,6 hPa 0,0 l/m 10,3 km/h (2 Bft) SW 225 0 min 2,5 C -1,4 C 18,7 km/h (3 Bft)
07.12.2019 00:50 5,3 C 5,3 C 4,1 C 4,4 C 1,6 C 0,0 C 81 % 86 % 1008,6 hPa 0,0 l/m 10,8 km/h (2 Bft) SW 225 0 min 2,3 C -1,6 C 15,0 km/h (3 Bft)
07.12.2019 00:55 5,2 C 5,4 C 4,1 C 4,3 C 1,7 C 0,0 C 82 % 87 % 1008,6 hPa 0,7 l/m 10,5 km/h (2 Bft) SO 135 0 min 2,4 C -1,4 C 5,5 km/h (1 Bft)
07.12.2019 01:00 5,3 C 5,5 C 4,1 C 4,4 C 1,6 C 0,0 C 82 % 87 % 1008,6 hPa 0,0 l/m 10,8 km/h (2 Bft) W-NW 292 0 min 2,5 C -1,6 C 11,1 km/h (2 Bft)
07.12.2019 01:05 5,2 C 5,5 C 4,0 C 4,3 C 1,8 C 0,0 C 83 % 88 % 1008,6 hPa 0,0 l/m 10,1 km/h (2 Bft) S-SO 157 0 min 2,6 C -1,2 C 31,2 km/h (5 Bft)
07.12.2019 01:10 5,1 C 5,5 C 4,0 C 4,3 C 2,2 C 0,0 C 84 % 88 % 1008,6 hPa 0,7 l/m 8,5 km/h (2 Bft) W-SW 247 0 min 2,6 C -0,3 C 12,4 km/h (3 Bft)
07.12.2019 01:15 5,0 C 5,5 C 3,9 C 4,3 C 2,3 C 0,0 C 84 % 88 % 1008,6 hPa 0,0 l/m 7,7 km/h (2 Bft) W 270 0 min 2,5 C 0,1 C 7,7 km/h (2 Bft)
07.12.2019 01:20 4,9 C 5,5 C 3,9 C 4,0 C 2,3 C 0,0 C 84 % 88 % 1008,7 hPa 0,0 l/m 7,7 km/h (2 Bft) N-NW 337 0 min 2,4 C 0,1 C 11,7 km/h (2 Bft)
07.12.2019 01:25 5,0 C 5,5 C 3,9 C 4,1 C 2,4 C 0,0 C 84 % 88 % 1008,7 hPa 0,7 l/m 7,6 km/h (2 Bft) N-NW 337 0 min 2,5 C 0,2 C 14,6 km/h (3 Bft)
07.12.2019 01:30 5,1 C 5,5 C 3,9 C 4,3 C 1,7 C 0,0 C 85 % 88 % 1008,7 hPa 0,0 l/m 10,5 km/h (2 Bft) O 90 0 min 2,8 C -1,4 C 19,3 km/h (3 Bft)
07.12.2019 01:35 5,0 C 5,5 C 3,9 C 4,2 C 1,8 C 0,0 C 85 % 88 % 1008,7 hPa 0,0 l/m 9,8 km/h (2 Bft) NW 315 0 min 2,7 C -1,1 C 8,4 km/h (2 Bft)
07.12.2019 01:40 4,9 C 5,5 C 3,9 C 4,1 C 2,4 C 0,0 C 85 % 88 % 1008,6 hPa 0,0 l/m 7,6 km/h (2 Bft) N-NO 22 0 min 2,6 C 0,2 C 11,9 km/h (2 Bft)
07.12.2019 01:45 4,9 C 5,5 C 3,9 C 4,1 C 2,4 C 0,0 C 85 % 89 % 1008,6 hPa 0,0 l/m 7,4 km/h (2 Bft) O 90 0 min 2,6 C 0,3 C 6,9 km/h (2 Bft)
07.12.2019 01:50 4,9 C 5,5 C 3,9 C 4,3 C 2,3 C 0,0 C 85 % 89 % 1008,6 hPa 0,0 l/m 8,4 km/h (2 Bft) S-SO 157 0 min 2,6 C -0,2 C 15,3 km/h (3 Bft)
07.12.2019 01:55 4,9 C 5,6 C 3,9 C 4,0 C 2,3 C 0,0 C 86 % 89 % 1008,6 hPa 0,0 l/m 8,5 km/h (2 Bft) W-SW 247 0 min 2,8 C -0,2 C 6,9 km/h (2 Bft)
07.12.2019 02:00 5,0 C 5,6 C 3,9 C 4,1 C 2,3 C 0,0 C 86 % 88 % 1007,9 hPa 0,0 l/m 8,2 km/h (2 Bft) S-SO 157 0 min 2,9 C -0,1 C 6,4 km/h (2 Bft)
07.12.2019 02:05 5,0 C 5,6 C 4,0 C 4,2 C 2,6 C 0,0 C 86 % 88 % 1007,9 hPa 0,0 l/m 7,4 km/h (2 Bft) N-NW 337 0 min 2,9 C 0,5 C 5,1 km/h (1 Bft)
07.12.2019 02:10 5,1 C 5,6 C 4,1 C 4,4 C 2,4 C 0,0 C 86 % 88 % 1007,9 hPa 0,0 l/m 7,7 km/h (2 Bft) S-SO 157 0 min 3,0 C 0,2 C 8,9 km/h (2 Bft)
07.12.2019 02:15 5,0 C 5,6 C 4,1 C 4,4 C 2,6 C 0,0 C 86 % 88 % 1007,9 hPa 0,0 l/m 7,7 km/h (2 Bft) NW 315 0 min 2,9 C 0,4 C 6,9 km/h (2 Bft)
07.12.2019 02:20 5,1 C 5,6 C 4,2 C 4,3 C 2,6 C 0,0 C 86 % 88 % 1009,1 hPa 0,0 l/m 8,0 km/h (2 Bft) SW 225 0 min 3,0 C 0,3 C 11,3 km/h (2 Bft)
07.12.2019 02:25 5,1 C 5,6 C 4,2 C 4,5 C 2,7 C 0,0 C 86 % 88 % 1009,1 hPa 0,0 l/m 7,9 km/h (2 Bft) S-SW 202 0 min 3,0 C 0,5 C 11,3 km/h (2 Bft)
07.12.2019 02:30 5,2 C 5,6 C 4,3 C 4,6 C 2,8 C 0,0 C 86 % 88 % 1009,1 hPa 0,0 l/m 7,7 km/h (2 Bft) SW 225 0 min 3,1 C 0,6 C 12,7 km/h (3 Bft)
07.12.2019 02:35 5,3 C 5,6 C 4,3 C 4,6 C 3,2 C 0,0 C 86 % 88 % 1009,1 hPa 0,0 l/m 6,9 km/h (2 Bft) O 90 0 min 3,2 C 1,3 C 4,7 km/h (1 Bft)
07.12.2019 02:40 5,2 C 5,6 C 4,3 C 4,6 C 3,3 C 0,0 C 86 % 88 % 1008,4 hPa 0,0 l/m 6,4 km/h (2 Bft) SO 135 0 min 3,1 C 1,6 C 12,4 km/h (3 Bft)
07.12.2019 02:45 5,3 C 5,5 C 4,3 C 4,6 C 3,2 C 0,0 C 85 % 88 % 1008,4 hPa 0,0 l/m 6,8 km/h (2 Bft) SO 135 0 min 3,0 C 1,4 C 13,5 km/h (3 Bft)
07.12.2019 02:50 5,3 C 5,5 C 4,4 C 4,6 C 3,1 C 0,0 C 85 % 88 % 1008,4 hPa 0,0 l/m 7,1 km/h (2 Bft) SO 135 0 min 3,0 C 1,2 C 9,5 km/h (2 Bft)
07.12.2019 02:55 5,3 C 5,5 C 4,4 C 4,5 C 3,0 C 0,0 C 85 % 88 % 1008,4 hPa 0,0 l/m 7,4 km/h (2 Bft) S-SO 157 0 min 3,0 C 1,0 C 16,7 km/h (3 Bft)
07.12.2019 03:00 5,4 C 5,5 C 4,4 C 4,8 C 2,9 C 0,0 C 85 % 88 % 1008,1 hPa 0,0 l/m 7,7 km/h (2 Bft) S 180 0 min 3,1 C 0,8 C 10,9 km/h (2 Bft)
07.12.2019 03:05 5,4 C 5,5 C 4,4 C 4,8 C 2,8 C 0,0 C 85 % 88 % 1008,1 hPa 0,0 l/m 8,0 km/h (2 Bft) SO 135 0 min 3,1 C 0,6 C 10,8 km/h (2 Bft)
07.12.2019 03:10 5,5 C 5,5 C 4,4 C 4,8 C 3,4 C 0,0 C 85 % 88 % 1008,1 hPa 0,0 l/m 6,9 km/h (2 Bft) W-NW 292 0 min 3,2 C 1,6 C 13,7 km/h (3 Bft)
07.12.2019 03:15 5,5 C 5,5 C 4,4 C 4,9 C 3,7 C 0,0 C 85 % 88 % 1008,1 hPa 0,0 l/m 6,1 km/h (2 Bft) O-SO 112 0 min 3,2 C 2,2 C 6,4 km/h (2 Bft)
07.12.2019 03:20 5,5 C 5,5 C 4,5 C 4,9 C 3,7 C 0,0 C 85 % 88 % 1008,5 hPa 0,0 l/m 6,9 km/h (2 Bft) O-NO 67 0 min 3,2 C 1,9 C 4,3 km/h (1 Bft)
07.12.2019 03:25 5,5 C 5,5 C 4,5 C 5,0 C 4,0 C 0,0 C 85 % 88 % 1008,5 hPa 0,0 l/m 6,1 km/h (2 Bft) S-SO 157 0 min 3,2 C 2,5 C 10,1 km/h (2 Bft)
07.12.2019 03:30 5,5 C 5,5 C 4,6 C 5,2 C 4,7 C 0,0 C 85 % 88 % 1008,5 hPa 0,0 l/m 5,0 km/h (1 Bft) W 270 0 min 3,2 C 3,7 C 5,6 km/h (1 Bft)
07.12.2019 03:35 5,5 C 5,5 C 4,6 C 5,3 C 4,8 C 0,0 C 84 % 88 % 1008,5 hPa 0,0 l/m 5,0 km/h (1 Bft) S-SO 157 0 min 3,0 C 3,9 C 5,5 km/h (1 Bft)
07.12.2019 03:40 5,6 C 5,5 C 4,6 C 5,4 C 5,0 C 0,0 C 84 % 88 % 1008,8 hPa 0,0 l/m 4,7 km/h (1 Bft) W 270 0 min 3,1 C 4,2 C 10,5 km/h (2 Bft)
07.12.2019 03:45 5,6 C 5,5 C 4,6 C 5,4 C 5,1 C 0,0 C 84 % 88 % 1008,8 hPa 0,0 l/m 4,7 km/h (1 Bft) W 270 0 min 3,1 C 4,3 C 6,9 km/h (2 Bft)
07.12.2019 03:50 5,6 C 5,5 C 4,7 C 5,4 C 5,1 C 0,0 C 84 % 88 % 1008,8 hPa 0,0 l/m 5,1 km/h (1 Bft) W-SW 247 0 min 3,1 C 4,2 C 11,7 km/h (2 Bft)
07.12.2019 03:55 5,7 C 5,5 C 4,7 C 5,3 C 4,5 C 0,0 C 84 % 88 % 1008,8 hPa 0,0 l/m 7,2 km/h (2 Bft) S-SW 202 0 min 3,2 C 2,8 C 14,0 km/h (3 Bft)
07.12.2019 04:00 5,8 C 5,5 C 4,7 C 5,5 C 4,1 C 0,0 C 84 % 88 % 1008,5 hPa 0,0 l/m 9,3 km/h (2 Bft) SW 225 0 min 3,3 C 1,7 C 10,9 km/h (2 Bft)
07.12.2019 04:05 5,9 C 5,5 C 4,8 C 5,6 C 4,4 C 0,0 C 84 % 88 % 1008,5 hPa 0,0 l/m 8,9 km/h (2 Bft) S 180 0 min 3,4 C 2,2 C 5,5 km/h (1 Bft)
07.12.2019 04:10 5,8 C 5,5 C 4,9 C 5,5 C 4,9 C 0,0 C 84 % 88 % 1008,5 hPa 0,0 l/m 6,8 km/h (2 Bft) N-NO 22 0 min 3,3 C 3,4 C 3,1 km/h (1 Bft)
07.12.2019 04:15 5,9 C 5,5 C 4,9 C 5,6 C 5,0 C 0,0 C 84 % 88 % 1008,5 hPa 0,0 l/m 6,3 km/h (2 Bft) N-NO 22 0 min 3,4 C 3,6 C 11,1 km/h (2 Bft)
07.12.2019 04:20 6,0 C 5,5 C 5,1 C 5,6 C 4,9 C 0,0 C 84 % 88 % 1008,8 hPa 0,0 l/m 6,8 km/h (2 Bft) S-SW 202 0 min 3,5 C 3,4 C 10,0 km/h (2 Bft)
07.12.2019 04:25 6,0 C 5,5 C 5,1 C 5,8 C 4,8 C 0,0 C 84 % 88 % 1008,8 hPa 0,0 l/m 7,9 km/h (2 Bft) S 180 0 min 3,5 C 2,9 C 3,7 km/h (1 Bft)
07.12.2019 04:30 6,1 C 5,5 C 5,2 C 5,8 C 5,2 C 0,0 C 84 % 88 % 1008,8 hPa 0,0 l/m 6,6 km/h (2 Bft) N-NW 337 0 min 3,6 C 3,8 C 4,3 km/h (1 Bft)
07.12.2019 04:35 6,2 C 5,5 C 5,3 C 6,1 C 5,8 C 0,0 C 84 % 87 % 1008,8 hPa 0,0 l/m 5,0 km/h (1 Bft) SO 135 0 min 3,7 C 5,0 C 6,8 km/h (2 Bft)
07.12.2019 04:40 6,3 C 5,5 C 5,4 C 6,1 C 5,7 C 0,0 C 84 % 87 % 1008,4 hPa 0,0 l/m 5,5 km/h (1 Bft) S-SW 202 0 min 3,8 C 4,7 C 9,3 km/h (2 Bft)
07.12.2019 04:45 6,3 C 5,5 C 5,4 C 6,1 C 5,6 C 0,0 C 84 % 87 % 1008,4 hPa 0,0 l/m 6,0 km/h (2 Bft) SW 225 0 min 3,8 C 4,4 C 16,3 km/h (3 Bft)
07.12.2019 04:50 6,4 C 5,5 C 5,5 C 6,1 C 5,4 C 0,0 C 84 % 87 % 1008,4 hPa 0,0 l/m 6,3 km/h (2 Bft) SO 135 0 min 3,9 C 4,1 C 4,3 km/h (1 Bft)
07.12.2019 04:55 6,4 C 5,5 C 5,6 C 6,1 C 5,6 C 0,0 C 84 % 87 % 1008,4 hPa 0,0 l/m 6,3 km/h (2 Bft) O-SO 112 0 min 3,9 C 4,3 C 2,9 km/h (1 Bft)
07.12.2019 05:00 6,5 C 5,5 C 5,5 C 6,2 C 5,5 C 0,0 C 84 % 87 % 1008,4 hPa 0,0 l/m 6,1 km/h (2 Bft) SW 225 0 min 4,0 C 4,3 C 8,9 km/h (2 Bft)
07.12.2019 05:05 6,4 C 5,5 C 5,5 C 6,0 C 5,2 C 0,0 C 84 % 87 % 1008,4 hPa 0,0 l/m 6,9 km/h (2 Bft) S-SO 157 0 min 3,9 C 3,7 C 10,9 km/h (2 Bft)
07.12.2019 05:10 6,7 C 5,5 C 5,6 C 6,3 C 4,7 C 0,0 C 84 % 87 % 1008,4 hPa 0,0 l/m 10,3 km/h (2 Bft) S 180 0 min 4,2 C 2,2 C 11,6 km/h (2 Bft)
07.12.2019 05:15 6,7 C 5,5 C 5,7 C 6,0 C 4,7 C 0,0 C 84 % 87 % 1008,4 hPa 0,0 l/m 10,6 km/h (2 Bft) SW 225 0 min 4,2 C 2,2 C 8,0 km/h (2 Bft)
07.12.2019 05:20 6,8 C 5,5 C 5,8 C 6,4 C 5,1 C 0,0 C 83 % 87 % 1008,9 hPa 0,0 l/m 10,0 km/h (2 Bft) S 180 0 min 4,1 C 2,8 C 12,7 km/h (3 Bft)
07.12.2019 05:25 6,8 C 5,5 C 5,8 C 6,5 C 5,3 C 0,0 C 83 % 87 % 1008,9 hPa 0,0 l/m 9,5 km/h (2 Bft) S 180 0 min 4,1 C 3,1 C 9,3 km/h (2 Bft)
07.12.2019 05:30 6,9 C 5,5 C 5,9 C 6,4 C 5,3 C 0,0 C 83 % 87 % 1008,9 hPa 0,0 l/m 9,2 km/h (2 Bft) S 180 0 min 4,2 C 3,2 C 12,2 km/h (2 Bft)
07.12.2019 05:35 6,8 C 5,5 C 6,0 C 6,5 C 5,6 C 0,0 C 83 % 86 % 1008,9 hPa 0,0 l/m 8,7 km/h (2 Bft) SO 135 0 min 4,1 C 3,7 C 14,2 km/h (3 Bft)
07.12.2019 05:40 6,9 C 5,5 C 6,1 C 6,7 C 5,7 C 0,0 C 83 % 86 % 1008,5 hPa 0,0 l/m 8,0 km/h (2 Bft) O-SO 112 0 min 4,2 C 4,0 C 10,8 km/h (2 Bft)
07.12.2019 05:45 6,9 C 5,5 C 6,1 C 6,7 C 5,8 C 0,0 C 83 % 86 % 1008,5 hPa 0,0 l/m 7,9 km/h (2 Bft) N-NW 337 0 min 4,2 C 4,1 C 7,4 km/h (2 Bft)
07.12.2019 05:50 7,0 C 5,5 C 6,2 C 6,6 C 5,9 C 0,0 C 82 % 86 % 1008,5 hPa 0,0 l/m 7,6 km/h (2 Bft) W-SW 247 0 min 4,1 C 4,3 C 7,4 km/h (2 Bft)
07.12.2019 05:55 7,0 C 5,5 C 6,1 C 6,8 C 5,8 C 0,0 C 82 % 86 % 1008,5 hPa 0,0 l/m 8,2 km/h (2 Bft) S-SW 202 0 min 4,1 C 4,0 C 13,5 km/h (3 Bft)
07.12.2019 06:00 7,1 C 5,5 C 6,1 C 6,8 C 5,7 C 0,0 C 83 % 86 % 1008,8 hPa 0,0 l/m 8,0 km/h (2 Bft) W 270 0 min 4,4 C 4,0 C 13,8 km/h (3 Bft)
07.12.2019 06:05 7,1 C 5,5 C 6,1 C 6,8 C 5,6 C 0,0 C 83 % 86 % 1008,8 hPa 0,0 l/m 8,7 km/h (2 Bft) S-SW 202 0 min 4,4 C 3,7 C 18,3 km/h (3 Bft)
07.12.2019 06:10 7,1 C 5,5 C 6,2 C 6,8 C 5,8 C 0,0 C 83 % 86 % 1008,8 hPa 0,0 l/m 7,9 km/h (2 Bft) S 180 0 min 4,4 C 4,1 C 13,4 km/h (3 Bft)
07.12.2019 06:15 7,1 C 5,5 C 6,3 C 6,7 C 5,8 C 0,0 C 82 % 86 % 1008,8 hPa 0,0 l/m 8,9 km/h (2 Bft) S 180 0 min 4,2 C 3,9 C 18,2 km/h (3 Bft)
07.12.2019 06:20 7,2 C 5,5 C 6,3 C 6,9 C 5,6 C 0,0 C 82 % 86 % 1008,6 hPa 0,0 l/m 10,9 km/h (2 Bft) O-NO 67 0 min 4,3 C 3,2 C 16,3 km/h (3 Bft)
07.12.2019 06:25 7,3 C 5,5 C 6,4 C 6,7 C 5,6 C 0,0 C 82 % 85 % 1008,6 hPa 0,0 l/m 11,1 km/h (2 Bft) S-SO 157 0 min 4,4 C 3,2 C 14,2 km/h (3 Bft)
07.12.2019 06:30 7,3 C 5,5 C 6,5 C 7,0 C 5,7 C 0,0 C 82 % 85 % 1008,6 hPa 0,0 l/m 11,3 km/h (2 Bft) SW 225 0 min 4,4 C 3,2 C 19,2 km/h (3 Bft)
07.12.2019 06:35 7,4 C 5,5 C 6,6 C 7,1 C 5,8 C 0,0 C 81 % 85 % 1008,6 hPa 0,0 l/m 10,8 km/h (2 Bft) W 270 0 min 4,4 C 3,5 C 10,0 km/h (2 Bft)
07.12.2019 06:40 7,4 C 5,5 C 6,6 C 7,1 C 6,1 C 0,0 C 81 % 85 % 1008,6 hPa 0,0 l/m 9,2 km/h (2 Bft) O-SO 112 0 min 4,4 C 4,1 C 12,1 km/h (2 Bft)
07.12.2019 06:45 7,5 C 5,5 C 6,7 C 7,2 C 6,2 C 0,0 C 81 % 85 % 1008,6 hPa 0,0 l/m 8,9 km/h (2 Bft) SW 225 0 min 4,5 C 4,3 C 14,3 km/h (3 Bft)
07.12.2019 06:50 7,5 C 5,5 C 6,7 C 7,3 C 6,3 C 0,0 C 81 % 85 % 1008,6 hPa 0,0 l/m 9,0 km/h (2 Bft) S-SW 202 0 min 4,5 C 4,4 C 11,4 km/h (2 Bft)
07.12.2019 06:55 7,5 C 5,5 C 6,7 C 7,3 C 6,4 C 0,0 C 81 % 85 % 1008,6 hPa 0,0 l/m 8,4 km/h (2 Bft) SW 225 0 min 4,5 C 4,7 C 7,2 km/h (2 Bft)
07.12.2019 07:00 7,6 C 5,5 C 6,8 C 7,2 C 6,4 C 0,0 C 81 % 84 % 1009,4 hPa 0,0 l/m 8,4 km/h (2 Bft) W-SW 247 0 min 4,6 C 4,7 C 12,2 km/h (2 Bft)
07.12.2019 07:05 7,6 C 5,5 C 6,9 C 7,2 C 6,4 C 0,0 C 81 % 84 % 1009,4 hPa 0,0 l/m 8,7 km/h (2 Bft) S-SW 202 0 min 4,6 C 4,6 C 7,7 km/h (2 Bft)
07.12.2019 07:10 7,7 C 5,5 C 6,9 C 7,5 C 6,7 C 0,0 C 81 % 84 % 1009,4 hPa 0,0 l/m 8,0 km/h (2 Bft) SW 225 0 min 4,7 C 5,1 C 10,0 km/h (2 Bft)
07.12.2019 07:15 7,7 C 5,5 C 6,9 C 7,5 C 6,6 C 0,0 C 81 % 84 % 1009,4 hPa 0,0 l/m 8,5 km/h (2 Bft) SW 225 0 min 4,7 C 4,9 C 18,8 km/h (3 Bft)
07.12.2019 07:20 7,8 C 5,5 C 7,0 C 7,5 C 6,4 C 0,0 C 81 % 84 % 1009,7 hPa 0,0 l/m 10,0 km/h (2 Bft) SW 225 0 min 4,7 C 4,3 C 15,8 km/h (3 Bft)
07.12.2019 07:25 7,9 C 5,5 C 7,1 C 7,6 C 6,5 C 0,0 C 81 % 84 % 1009,7 hPa 0,0 l/m 10,0 km/h (2 Bft) W-SW 247 0 min 4,8 C 4,5 C 10,8 km/h (2 Bft)
07.12.2019 07:30 7,9 C 5,5 C 7,1 C 7,6 C 6,7 C 0,0 C 81 % 84 % 1009,7 hPa 0,0 l/m 9,0 km/h (2 Bft) W-SW 247 0 min 4,8 C 4,9 C 9,8 km/h (2 Bft)
07.12.2019 07:35 7,8 C 5,5 C 6,9 C 7,5 C 6,4 C 0,0 C 81 % 84 % 1009,7 hPa 0,0 l/m 9,0 km/h (2 Bft) NW 315 0 min 4,7 C 4,5 C 19,8 km/h (3 Bft)
07.12.2019 07:40 7,7 C 5,6 C 6,9 C 7,4 C 6,2 C 0,0 C 81 % 84 % 1009,7 hPa 0,0 l/m 9,7 km/h (2 Bft) S-SW 202 0 min 4,7 C 4,2 C 17,5 km/h (3 Bft)
07.12.2019 07:45 7,7 C 5,6 C 6,8 C 7,2 C 6,2 C 0,0 C 81 % 84 % 1009,7 hPa 0,0 l/m 9,8 km/h (2 Bft) S-SO 157 0 min 4,7 C 4,1 C 8,2 km/h (2 Bft)
07.12.2019 07:50 7,7 C 5,6 C 6,8 C 7,2 C 6,2 C 0,0 C 81 % 84 % 1009,7 hPa 0,0 l/m 9,2 km/h (2 Bft) SW 225 0 min 4,7 C 4,3 C 11,4 km/h (2 Bft)
07.12.2019 07:55 7,7 C 5,6 C 6,9 C 7,2 C 6,2 C 0,0 C 81 % 84 % 1009,7 hPa 0,0 l/m 9,2 km/h (2 Bft) S-SO 157 0 min 4,7 C 4,3 C 9,7 km/h (2 Bft)
07.12.2019 08:00 7,7 C 5,6 C 6,8 C 7,4 C 6,1 C 0,0 C 81 % 84 % 1010,1 hPa 0,0 l/m 10,0 km/h (2 Bft) W-SW 247 0 min 4,7 C 4,0 C 14,8 km/h (3 Bft)
07.12.2019 08:05 7,9 C 5,6 C 6,9 C 7,5 C 6,2 C 0,0 C 81 % 84 % 1010,1 hPa 0,0 l/m 10,3 km/h (2 Bft) S-SO 157 0 min 4,8 C 4,0 C 8,2 km/h (2 Bft)
07.12.2019 08:10 7,9 C 5,6 C 6,9 C 7,6 C 6,5 C 0,0 C 81 % 84 % 1010,1 hPa 0,0 l/m 8,7 km/h (2 Bft) NW 315 0 min 4,8 C 4,7 C 5,6 km/h (1 Bft)
07.12.2019 08:15 7,9 C 5,6 C 6,9 C 7,6 C 6,7 C 0,0 C 81 % 84 % 1010,1 hPa 0,0 l/m 7,9 km/h (2 Bft) S-SO 157 0 min 4,8 C 5,2 C 10,8 km/h (2 Bft)
07.12.2019 08:20 7,9 C 5,6 C 7,1 C 7,6 C 7,0 C 0,0 C 81 % 84 % 1010,7 hPa 0,0 l/m 6,9 km/h (2 Bft) SW 225 0 min 4,8 C 5,8 C 10,9 km/h (2 Bft)
07.12.2019 08:25 7,9 C 5,6 C 7,1 C 7,7 C 7,2 C 0,0 C 81 % 84 % 1010,7 hPa 0,0 l/m 6,9 km/h (2 Bft) S 180 0 min 4,8 C 6,0 C 12,1 km/h (2 Bft)
07.12.2019 08:30 7,8 C 5,6 C 7,1 C 7,7 C 7,5 C 0,0 C 81 % 84 % 1010,7 hPa 0,0 l/m 5,6 km/h (1 Bft) W-SW 247 0 min 4,7 C 6,7 C 9,8 km/h (2 Bft)
07.12.2019 08:35 7,9 C 5,6 C 7,2 C 7,7 C 7,4 C 0,0 C 81 % 84 % 1010,7 hPa 0,0 l/m 6,0 km/h (2 Bft) W-SW 247 0 min 4,8 C 6,5 C 18,3 km/h (3 Bft)
07.12.2019 08:40 7,9 C 5,6 C 7,2 C 7,8 C 6,9 C 0,0 C 81 % 84 % 1010,9 hPa 0,0 l/m 8,5 km/h (2 Bft) SW 225 0 min 4,8 C 5,2 C 12,4 km/h (3 Bft)
07.12.2019 08:45 7,9 C 5,6 C 7,2 C 7,7 C 6,8 C 0,0 C 81 % 84 % 1010,9 hPa 0,0 l/m 8,7 km/h (2 Bft) SW 225 0 min 4,8 C 5,1 C 10,0 km/h (2 Bft)
07.12.2019 08:50 8,0 C 5,7 C 7,2 C 7,6 C 6,8 C 0,0 C 81 % 84 % 1010,9 hPa 0,0 l/m 8,9 km/h (2 Bft) SW 225 0 min 4,9 C 5,0 C 10,5 km/h (2 Bft)
07.12.2019 08:55 8,0 C 5,7 C 7,3 C 7,6 C 6,8 C 0,0 C 81 % 84 % 1010,9 hPa 0,0 l/m 9,3 km/h (2 Bft) S 180 0 min 4,9 C 5,0 C 12,4 km/h (3 Bft)
07.12.2019 09:00 8,0 C 5,7 C 7,3 C 7,8 C 7,1 C 0,0 C 81 % 83 % 1010,9 hPa 0,0 l/m 8,0 km/h (2 Bft) W-SW 247 0 min 4,9 C 5,6 C 9,7 km/h (2 Bft)
07.12.2019 09:05 8,0 C 5,7 C 7,3 C 7,7 C 7,1 C 0,0 C 81 % 83 % 1010,9 hPa 0,0 l/m 8,0 km/h (2 Bft) SO 135 0 min 4,9 C 5,6 C 8,7 km/h (2 Bft)
07.12.2019 09:10 8,0 C 5,7 C 7,3 C 7,9 C 7,2 C 0,0 C 81 % 83 % 1010,9 hPa 0,0 l/m 7,7 km/h (2 Bft) SW 225 0 min 4,9 C 5,8 C 6,1 km/h (2 Bft)
07.12.2019 09:15 8,0 C 5,7 C 7,4 C 7,9 C 7,1 C 0,0 C 81 % 83 % 1010,9 hPa 0,0 l/m 8,0 km/h (2 Bft) SW 225 0 min 4,9 C 5,6 C 11,3 km/h (2 Bft)
07.12.2019 09:20 8,0 C 5,7 C 7,5 C 7,7 C 7,1 C 0,0 C 81 % 83 % 1010,8 hPa 0,0 l/m 8,7 km/h (2 Bft) S-SW 202 0 min 4,9 C 5,4 C 17,1 km/h (3 Bft)
07.12.2019 09:25 8,1 C 5,7 C 7,4 C 7,8 C 7,1 C 0,0 C 81 % 83 % 1010,8 hPa 0,0 l/m 8,5 km/h (2 Bft) S-SO 157 0 min 5,0 C 5,5 C 12,6 km/h (3 Bft)
07.12.2019 09:30 8,0 C 5,7 C 7,4 C 7,9 C 7,2 C 0,0 C 81 % 83 % 1010,8 hPa 0,0 l/m 9,0 km/h (2 Bft) S 180 0 min 4,9 C 5,5 C 9,2 km/h (2 Bft)
07.12.2019 09:35 8,1 C 5,7 C 7,5 C 7,9 C 7,1 C 0,0 C 81 % 83 % 1010,8 hPa 0,0 l/m 9,5 km/h (2 Bft) S 180 0 min 5,0 C 5,3 C 12,6 km/h (3 Bft)
07.12.2019 09:40 8,1 C 5,7 C 7,5 C 7,8 C 7,1 C 0,0 C 81 % 83 % 1011,2 hPa 0,0 l/m 9,7 km/h (2 Bft) O-SO 112 0 min 5,0 C 5,2 C 14,5 km/h (3 Bft)
07.12.2019 09:45 8,1 C 5,7 C 7,5 C 7,8 C 7,1 C 0,0 C 81 % 83 % 1011,2 hPa 0,0 l/m 10,3 km/h (2 Bft) S-SW 202 0 min 5,0 C 5,1 C 7,9 km/h (2 Bft)
07.12.2019 09:50 8,3 C 5,7 C 7,6 C 8,1 C 7,0 C 0,0 C 81 % 83 % 1011,2 hPa 0,0 l/m 10,8 km/h (2 Bft) SW 225 0 min 5,2 C 4,9 C 12,6 km/h (3 Bft)
07.12.2019 09:55 8,3 C 5,7 C 7,7 C 8,1 C 7,2 C 0,0 C 80 % 83 % 1011,2 hPa 0,0 l/m 10,5 km/h (2 Bft) W-NW 292 0 min 5,1 C 5,2 C 9,5 km/h (2 Bft)
07.12.2019 10:00 8,3 C 5,8 C 7,8 C 7,9 C 7,2 C 0,0 C 80 % 83 % 1011,2 hPa 0,0 l/m 10,5 km/h (2 Bft) S 180 0 min 5,1 C 5,2 C 12,7 km/h (3 Bft)
07.12.2019 10:05 8,3 C 5,8 C 7,8 C 8,1 C 7,1 C 0,0 C 80 % 83 % 1011,2 hPa 0,0 l/m 10,6 km/h (2 Bft) S 180 0 min 5,1 C 5,1 C 13,2 km/h (3 Bft)
07.12.2019 10:10 8,4 C 5,8 C 7,9 C 8,0 C 7,1 C 0,0 C 81 % 83 % 1011,2 hPa 0,0 l/m 11,1 km/h (2 Bft) S 180 0 min 5,3 C 5,0 C 12,7 km/h (3 Bft)
07.12.2019 10:15 8,4 C 5,8 C 7,9 C 8,2 C 7,3 C 0,0 C 81 % 83 % 1011,2 hPa 0,0 l/m 11,1 km/h (2 Bft) S-SW 202 0 min 5,3 C 5,2 C 11,6 km/h (2 Bft)
07.12.2019 10:20 8,5 C 5,8 C 8,1 C 8,3 C 7,6 C 0,0 C 80 % 82 % 1011,9 hPa 0,0 l/m 10,8 km/h (2 Bft) S-SW 202 0 min 5,3 C 5,6 C 15,9 km/h (3 Bft)
07.12.2019 10:25 8,7 C 5,8 C 8,1 C 8,6 C 7,8 C 0,0 C 80 % 82 % 1011,9 hPa 0,0 l/m 10,5 km/h (2 Bft) S-SW 202 0 min 5,4 C 5,9 C 17,1 km/h (3 Bft)
07.12.2019 10:30 8,7 C 5,8 C 8,1 C 8,6 C 7,9 C 0,0 C 80 % 82 % 1011,9 hPa 0,0 l/m 10,5 km/h (2 Bft) S 180 0 min 5,4 C 6,0 C 12,2 km/h (2 Bft)
07.12.2019 10:35 8,7 C 5,8 C 8,1 C 8,6 C 7,7 C 0,0 C 79 % 82 % 1011,9 hPa 0,0 l/m 10,9 km/h (2 Bft) SW 225 0 min 5,3 C 5,7 C 10,1 km/h (2 Bft)
07.12.2019 10:40 8,8 C 5,8 C 8,2 C 8,7 C 8,0 C 0,0 C 79 % 82 % 1011,9 hPa 0,0 l/m 10,3 km/h (2 Bft) S-SW 202 0 min 5,4 C 6,2 C 20,6 km/h (4 Bft)
07.12.2019 10:45 8,8 C 5,8 C 8,3 C 8,7 C 7,9 C 0,0 C 79 % 81 % 1011,9 hPa 0,0 l/m 10,5 km/h (2 Bft) S 180 0 min 5,4 C 6,0 C 16,1 km/h (3 Bft)
07.12.2019 10:50 8,9 C 5,8 C 8,5 C 8,8 C 8,2 C 0,0 C 79 % 81 % 1011,9 hPa 0,0 l/m 10,5 km/h (2 Bft) S-SO 157 0 min 5,5 C 6,4 C 9,2 km/h (2 Bft)
07.12.2019 10:55 8,9 C 5,8 C 8,5 C 8,9 C 8,4 C 0,0 C 79 % 81 % 1011,9 hPa 0,0 l/m 10,5 km/h (2 Bft) S 180 0 min 5,5 C 6,6 C 11,6 km/h (2 Bft)
07.12.2019 11:00 8,9 C 5,8 C 8,5 C 8,9 C 8,1 C 0,0 C 79 % 81 % 1012,6 hPa 0,0 l/m 11,6 km/h (2 Bft) SW 225 0 min 5,5 C 6,1 C 16,3 km/h (3 Bft)
07.12.2019 11:05 8,9 C 5,9 C 8,5 C 8,8 C 8,2 C 0,0 C 79 % 81 % 1012,6 hPa 0,0 l/m 11,3 km/h (2 Bft) S 180 0 min 5,5 C 6,2 C 10,9 km/h (2 Bft)
07.12.2019 11:10 8,9 C 5,9 C 8,4 C 8,8 C 8,1 C 0,0 C 79 % 81 % 1012,6 hPa 0,0 l/m 11,4 km/h (2 Bft) SO 135 0 min 5,5 C 6,1 C 11,1 km/h (2 Bft)
07.12.2019 11:15 8,8 C 5,9 C 8,3 C 8,6 C 8,1 C 0,0 C 79 % 81 % 1012,6 hPa 0,0 l/m 10,6 km/h (2 Bft) SW 225 0 min 5,4 C 6,3 C 16,9 km/h (3 Bft)
07.12.2019 11:20 8,8 C 5,9 C 8,5 C 8,7 C 7,9 C 0,0 C 79 % 81 % 1012,1 hPa 0,0 l/m 11,6 km/h (2 Bft) S 180 0 min 5,4 C 5,8 C 13,8 km/h (3 Bft)
07.12.2019 11:25 8,9 C 5,9 C 8,6 C 8,8 C 7,8 C 0,0 C 79 % 81 % 1012,1 hPa 0,0 l/m 13,4 km/h (3 Bft) SW 225 0 min 5,5 C 5,4 C 17,1 km/h (3 Bft)
07.12.2019 11:30 9,1 C 5,9 C 8,8 C 9,0 C 8,5 C 0,0 C 79 % 81 % 1012,1 hPa 0,0 l/m 11,6 km/h (2 Bft) SO 135 0 min 5,7 C 6,6 C 13,5 km/h (3 Bft)
07.12.2019 11:35 9,1 C 5,9 C 8,8 C 9,1 C 8,7 C 0,0 C 79 % 81 % 1012,1 hPa 0,0 l/m 10,6 km/h (2 Bft) S-SW 202 0 min 5,7 C 7,0 C 14,3 km/h (3 Bft)
07.12.2019 11:40 9,1 C 5,9 C 8,7 C 9,1 C 8,6 C 0,0 C 79 % 80 % 1012,3 hPa 0,0 l/m 10,9 km/h (2 Bft) S-SW 202 0 min 5,7 C 6,8 C 14,5 km/h (3 Bft)
07.12.2019 11:45 9,1 C 5,9 C 8,8 C 8,9 C 8,6 C 0,0 C 79 % 81 % 1012,3 hPa 0,0 l/m 11,1 km/h (2 Bft) S-SW 202 0 min 5,7 C 6,8 C 12,1 km/h (2 Bft)
07.12.2019 11:50 9,1 C 5,9 C 8,7 C 9,1 C 8,5 C 0,0 C 79 % 81 % 1012,3 hPa 0,0 l/m 10,6 km/h (2 Bft) SW 225 0 min 5,7 C 6,7 C 8,4 km/h (2 Bft)
07.12.2019 11:55 9,1 C 5,9 C 8,7 C 9,1 C 8,7 C 0,0 C 79 % 81 % 1012,3 hPa 0,0 l/m 9,8 km/h (2 Bft) S-SW 202 0 min 5,7 C 7,1 C 16,9 km/h (3 Bft)
07.12.2019 12:00 9,1 C 5,9 C 8,7 C 9,0 C 8,7 C 0,0 C 79 % 81 % 1011,9 hPa 0,0 l/m 8,9 km/h (2 Bft) S-SW 202 0 min 5,7 C 7,3 C 11,6 km/h (2 Bft)
07.12.2019 12:05 9,1 C 6,0 C 8,7 C 9,0 C 8,7 C 0,0 C 79 % 81 % 1011,9 hPa 0,0 l/m 8,7 km/h (2 Bft) SW 225 0 min 5,7 C 7,3 C 9,5 km/h (2 Bft)
07.12.2019 12:10 9,1 C 6,0 C 8,7 C 9,1 C 8,8 C 0,0 C 79 % 81 % 1011,9 hPa 0,0 l/m 8,0 km/h (2 Bft) O-SO 112 0 min 5,7 C 7,6 C 8,9 km/h (2 Bft)
07.12.2019 12:15 9,1 C 6,0 C 8,8 C 9,2 C 8,9 C 0,1 C 79 % 81 % 1011,9 hPa 0,0 l/m 8,4 km/h (2 Bft) SO 135 0 min 5,7 C 7,6 C 7,4 km/h (2 Bft)
07.12.2019 12:20 9,2 C 6,0 C 9,0 C 9,4 C 9,0 C 0,2 C 79 % 80 % 1012,1 hPa 0,0 l/m 9,8 km/h (2 Bft) S 180 0 min 5,8 C 7,5 C 15,8 km/h (3 Bft)
07.12.2019 12:25 9,3 C 6,0 C 9,0 C 9,2 C 9,0 C 0,0 C 79 % 80 % 1012,1 hPa 0,0 l/m 9,7 km/h (2 Bft) SW 225 0 min 5,8 C 7,5 C 10,1 km/h (2 Bft)
07.12.2019 12:30 9,2 C 6,0 C 9,1 C 9,4 C 8,8 C 0,2 C 78 % 79 % 1012,1 hPa 0,0 l/m 10,9 km/h (2 Bft) S-SW 202 0 min 5,6 C 7,0 C 12,6 km/h (3 Bft)
07.12.2019 12:35 9,3 C 6,0 C 9,0 C 9,1 C 8,8 C 0,0 C 78 % 79 % 1012,1 hPa 0,0 l/m 10,8 km/h (2 Bft) SW 225 0 min 5,7 C 7,1 C 9,2 km/h (2 Bft)
07.12.2019 12:40 9,3 C 6,0 C 9,0 C 9,3 C 8,9 C 0,0 C 78 % 79 % 1012,1 hPa 0,0 l/m 10,1 km/h (2 Bft) SW 225 0 min 5,7 C 7,3 C 11,4 km/h (2 Bft)
07.12.2019 12:45 9,3 C 6,0 C 9,0 C 9,4 C 9,0 C 0,1 C 78 % 79 % 1012,1 hPa 0,0 l/m 9,7 km/h (2 Bft) SW 225 0 min 5,7 C 7,5 C 10,8 km/h (2 Bft)
07.12.2019 12:50 9,4 C 6,0 C 9,0 C 9,4 C 8,9 C 0,0 C 77 % 79 % 1012,1 hPa 0,0 l/m 9,7 km/h (2 Bft) SW 225 0 min 5,6 C 7,4 C 15,3 km/h (3 Bft)
07.12.2019 12:55 9,5 C 6,0 C 8,9 C 9,4 C 8,7 C 0,0 C 76 % 78 % 1012,1 hPa 0,0 l/m 10,3 km/h (2 Bft) S-SW 202 0 min 5,5 C 7,0 C 16,1 km/h (3 Bft)
07.12.2019 13:00 9,5 C 6,0 C 8,9 C 9,4 C 8,6 C 0,0 C 76 % 78 % 1012,2 hPa 0,0 l/m 11,3 km/h (2 Bft) W-SW 247 0 min 5,5 C 6,7 C 12,1 km/h (2 Bft)
07.12.2019 13:05 9,5 C 6,0 C 8,9 C 9,4 C 8,7 C 0,0 C 76 % 78 % 1012,2 hPa 0,0 l/m 10,6 km/h (2 Bft) N-NO 22 0 min 5,5 C 7,0 C 15,8 km/h (3 Bft)
07.12.2019 13:10 9,4 C 6,0 C 8,8 C 9,3 C 8,6 C 0,0 C 75 % 78 % 1012,2 hPa 0,0 l/m 10,3 km/h (2 Bft) S-SO 157 0 min 5,2 C 6,9 C 19,5 km/h (3 Bft)
07.12.2019 13:15 9,4 C 6,0 C 8,9 C 9,3 C 8,4 C 0,0 C 75 % 78 % 1012,2 hPa 0,0 l/m 11,1 km/h (2 Bft) S-SW 202 0 min 5,2 C 6,5 C 11,9 km/h (2 Bft)
07.12.2019 13:20 9,4 C 6,0 C 8,8 C 9,3 C 8,6 C 0,0 C 75 % 77 % 1012,2 hPa 0,0 l/m 10,8 km/h (2 Bft) SW 225 0 min 5,2 C 6,8 C 14,0 km/h (3 Bft)
07.12.2019 13:25 9,4 C 6,0 C 8,8 C 9,3 C 8,7 C 0,0 C 75 % 77 % 1012,2 hPa 0,0 l/m 10,3 km/h (2 Bft) S-SW 202 0 min 5,2 C 7,0 C 16,4 km/h (3 Bft)
07.12.2019 13:30 9,3 C 6,0 C 8,7 C 9,2 C 8,6 C 0,0 C 75 % 78 % 1012,2 hPa 0,0 l/m 9,5 km/h (2 Bft) SW 225 0 min 5,1 C 7,1 C 8,7 km/h (2 Bft)
07.12.2019 13:35 9,3 C 6,1 C 8,7 C 9,1 C 8,6 C 0,0 C 74 % 77 % 1012,2 hPa 0,0 l/m 9,7 km/h (2 Bft) SW 225 0 min 4,9 C 7,0 C 9,8 km/h (2 Bft)
07.12.2019 13:40 9,4 C 6,1 C 8,7 C 9,3 C 8,7 C 0,0 C 74 % 77 % 1012,7 hPa 0,0 l/m 9,5 km/h (2 Bft) S 180 0 min 5,0 C 7,2 C 9,0 km/h (2 Bft)
07.12.2019 13:45 9,5 C 6,1 C 8,8 C 9,4 C 8,8 C 0,0 C 74 % 77 % 1012,7 hPa 0,0 l/m 9,3 km/h (2 Bft) S-SW 202 0 min 5,1 C 7,3 C 15,3 km/h (3 Bft)
07.12.2019 13:50 9,5 C 6,1 C 8,9 C 9,3 C 8,8 C 0,0 C 74 % 77 % 1012,7 hPa 0,0 l/m 9,5 km/h (2 Bft) SW 225 0 min 5,1 C 7,3 C 11,6 km/h (2 Bft)
07.12.2019 13:55 9,5 C 6,1 C 8,8 C 9,4 C 8,9 C 0,0 C 75 % 78 % 1012,7 hPa 0,0 l/m 9,0 km/h (2 Bft) S-SW 202 0 min 5,3 C 7,5 C 9,7 km/h (2 Bft)
07.12.2019 14:00 9,5 C 6,1 C 8,9 C 9,3 C 8,9 C 0,0 C 75 % 78 % 1012,5 hPa 0,0 l/m 8,9 km/h (2 Bft) S-SW 202 0 min 5,3 C 7,5 C 10,0 km/h (2 Bft)
07.12.2019 14:05 9,5 C 6,1 C 8,8 C 9,4 C 8,8 C 0,0 C 75 % 78 % 1012,5 hPa 0,0 l/m 9,3 km/h (2 Bft) S-SW 202 0 min 5,3 C 7,3 C 12,7 km/h (3 Bft)
07.12.2019 14:10 9,3 C 6,1 C 8,7 C 9,2 C 8,6 C 0,0 C 75 % 78 % 1012,5 hPa 0,0 l/m 9,5 km/h (2 Bft) S 180 0 min 5,1 C 7,1 C 7,6 km/h (2 Bft)
07.12.2019 14:15 9,3 C 6,1 C 8,7 C 9,1 C 8,6 C 0,0 C 76 % 78 % 1012,5 hPa 0,0 l/m 9,3 km/h (2 Bft) SW 225 0 min 5,3 C 7,1 C 10,5 km/h (2 Bft)
07.12.2019 14:20 9,2 C 6,1 C 8,7 C 9,1 C 8,4 C 0,0 C 76 % 79 % 1012,8 hPa 0,0 l/m 9,5 km/h (2 Bft) SW 225 0 min 5,2 C 6,8 C 12,4 km/h (3 Bft)
07.12.2019 14:25 9,2 C 6,1 C 8,7 C 9,1 C 8,3 C 0,0 C 76 % 79 % 1012,8 hPa 0,0 l/m 10,0 km/h (2 Bft) SW 225 0 min 5,2 C 6,6 C 14,2 km/h (3 Bft)
07.12.2019 14:30 9,2 C 6,2 C 8,7 C 9,0 C 8,1 C 0,0 C 76 % 78 % 1012,8 hPa 0,0 l/m 11,4 km/h (2 Bft) SW 225 0 min 5,2 C 6,1 C 14,2 km/h (3 Bft)
07.12.2019 14:35 9,2 C 6,2 C 8,6 C 9,0 C 8,2 C 0,0 C 76 % 79 % 1012,8 hPa 0,0 l/m 10,8 km/h (2 Bft) SW 225 0 min 5,2 C 6,3 C 11,4 km/h (2 Bft)
07.12.2019 14:40 9,3 C 6,2 C 8,6 C 9,1 C 8,4 C 0,0 C 76 % 78 % 1012,6 hPa 0,0 l/m 9,5 km/h (2 Bft) S 180 0 min 5,3 C 6,8 C 9,5 km/h (2 Bft)
07.12.2019 14:45 9,3 C 6,2 C 8,6 C 9,0 C 8,4 C 0,0 C 76 % 78 % 1012,6 hPa 0,0 l/m 9,3 km/h (2 Bft) S 180 0 min 5,3 C 6,9 C 10,3 km/h (2 Bft)
07.12.2019 14:50 9,2 C 6,2 C 8,6 C 9,1 C 8,3 C 0,0 C 76 % 78 % 1012,6 hPa 0,0 l/m 10,0 km/h (2 Bft) S 180 0 min 5,2 C 6,6 C 19,5 km/h (3 Bft)
07.12.2019 14:55 9,2 C 6,2 C 8,6 C 9,0 C 8,2 C 0,0 C 76 % 79 % 1012,6 hPa 0,0 l/m 10,6 km/h (2 Bft) SW 225 0 min 5,2 C 6,4 C 8,4 km/h (2 Bft)
07.12.2019 15:00 9,1 C 6,2 C 8,5 C 8,9 C 8,1 C 0,0 C 76 % 79 % 1013,1 hPa 0,0 l/m 9,5 km/h (2 Bft) W-SW 247 0 min 5,1 C 6,5 C 9,7 km/h (2 Bft)
07.12.2019 15:05 9,0 C 6,2 C 8,4 C 8,7 C 8,1 C 0,0 C 77 % 79 % 1013,1 hPa 0,0 l/m 9,2 km/h (2 Bft) S-SW 202 0 min 5,2 C 6,5 C 9,5 km/h (2 Bft)
07.12.2019 15:10 9,1 C 6,2 C 8,3 C 8,9 C 7,9 C 0,0 C 77 % 80 % 1013,1 hPa 0,0 l/m 10,0 km/h (2 Bft) S 180 0 min 5,3 C 6,1 C 10,3 km/h (2 Bft)
07.12.2019 15:15 9,0 C 6,2 C 8,3 C 8,6 C 7,9 C 0,0 C 77 % 80 % 1013,1 hPa 0,0 l/m 10,1 km/h (2 Bft) W-SW 247 0 min 5,2 C 6,1 C 10,5 km/h (2 Bft)
07.12.2019 15:20 8,9 C 6,2 C 8,3 C 8,7 C 7,5 C 0,0 C 77 % 80 % 1013,4 hPa 0,0 l/m 11,4 km/h (2 Bft) SW 225 0 min 5,1 C 5,4 C 13,8 km/h (3 Bft)
07.12.2019 15:25 8,9 C 6,2 C 8,3 C 8,6 C 7,6 C 0,0 C 77 % 80 % 1013,4 hPa 0,0 l/m 11,1 km/h (2 Bft) SW 225 0 min 5,1 C 5,6 C 12,1 km/h (2 Bft)
07.12.2019 15:30 8,8 C 6,2 C 8,2 C 8,6 C 7,8 C 0,0 C 77 % 80 % 1013,4 hPa 0,0 l/m 9,7 km/h (2 Bft) S 180 0 min 5,0 C 6,1 C 6,9 km/h (2 Bft)
07.12.2019 15:35 8,8 C 6,3 C 8,1 C 8,5 C 7,8 C 0,0 C 77 % 80 % 1013,4 hPa 0,0 l/m 9,3 km/h (2 Bft) SW 225 0 min 5,0 C 6,1 C 9,0 km/h (2 Bft)
07.12.2019 15:40 8,7 C 6,3 C 8,0 C 8,5 C 7,6 C 0,0 C 78 % 80 % 1013,8 hPa 0,0 l/m 9,2 km/h (2 Bft) SW 225 0 min 5,1 C 5,9 C 8,5 km/h (2 Bft)
07.12.2019 15:45 8,7 C 6,3 C 8,0 C 8,5 C 7,5 C 0,0 C 78 % 80 % 1013,8 hPa 0,0 l/m 8,9 km/h (2 Bft) S-SW 202 0 min 5,1 C 5,9 C 7,7 km/h (2 Bft)
07.12.2019 15:50 8,5 C 6,3 C 7,9 C 8,2 C 7,7 C 0,0 C 79 % 81 % 1013,8 hPa 0,0 l/m 7,6 km/h (2 Bft) SW 225 0 min 5,1 C 6,4 C 7,1 km/h (2 Bft)
07.12.2019 15:55 8,4 C 6,3 C 7,9 C 8,2 C 7,7 C 0,0 C 79 % 81 % 1013,8 hPa 0,0 l/m 7,1 km/h (2 Bft) W-SW 247 0 min 5,0 C 6,5 C 5,5 km/h (1 Bft)
07.12.2019 16:00 8,4 C 6,3 C 7,7 C 8,1 C 7,6 C 0,0 C 79 % 81 % 1013,9 hPa 0,0 l/m 7,2 km/h (2 Bft) W 270 0 min 5,0 C 6,4 C 9,7 km/h (2 Bft)
07.12.2019 16:05 8,5 C 6,3 C 7,7 C 8,2 C 7,7 C 0,0 C 79 % 81 % 1013,9 hPa 0,0 l/m 6,8 km/h (2 Bft) O-NO 67 0 min 5,1 C 6,6 C 8,7 km/h (2 Bft)
07.12.2019 16:10 8,5 C 6,3 C 7,8 C 8,3 C 7,3 C 0,0 C 79 % 81 % 1013,9 hPa 0,0 l/m 8,5 km/h (2 Bft) S-SW 202 0 min 5,1 C 5,7 C 15,3 km/h (3 Bft)
07.12.2019 16:15 8,4 C 6,3 C 7,7 C 8,2 C 7,2 C 0,0 C 79 % 81 % 1013,9 hPa 0,0 l/m 9,0 km/h (2 Bft) W-SW 247 0 min 5,0 C 5,5 C 12,2 km/h (2 Bft)
07.12.2019 16:20 8,4 C 6,3 C 7,7 C 8,1 C 6,9 C 0,0 C 79 % 81 % 1014,0 hPa 0,0 l/m 10,1 km/h (2 Bft) S 180 0 min 5,0 C 4,9 C 13,0 km/h (3 Bft)
07.12.2019 16:25 8,3 C 6,3 C 7,7 C 7,8 C 6,9 C 0,0 C 79 % 81 % 1014,0 hPa 0,0 l/m 10,3 km/h (2 Bft) S 180 0 min 4,9 C 4,9 C 12,6 km/h (3 Bft)
07.12.2019 16:30 8,3 C 6,3 C 7,6 C 7,8 C 6,9 C 0,0 C 79 % 81 % 1014,0 hPa 0,0 l/m 10,5 km/h (2 Bft) SW 225 0 min 4,9 C 4,8 C 12,2 km/h (2 Bft)
07.12.2019 16:35 8,3 C 6,3 C 7,6 C 8,0 C 6,7 C 0,0 C 79 % 81 % 1014,0 hPa 0,0 l/m 10,5 km/h (2 Bft) SW 225 0 min 4,9 C 4,6 C 16,4 km/h (3 Bft)
07.12.2019 16:40 8,3 C 6,3 C 7,6 C 7,8 C 6,7 C 0,0 C 79 % 81 % 1014,9 hPa 0,0 l/m 10,3 km/h (2 Bft) SW 225 0 min 4,9 C 4,6 C 10,9 km/h (2 Bft)
07.12.2019 16:45 8,2 C 6,3 C 7,5 C 7,9 C 6,5 C 0,0 C 80 % 81 % 1014,9 hPa 0,0 l/m 11,1 km/h (2 Bft) SW 225 0 min 5,0 C 4,2 C 17,2 km/h (3 Bft)
07.12.2019 16:50 8,1 C 6,3 C 7,5 C 7,8 C 6,8 C 0,0 C 80 % 81 % 1014,9 hPa 0,0 l/m 9,5 km/h (2 Bft) W-SW 247 0 min 4,9 C 4,9 C 8,0 km/h (2 Bft)
07.12.2019 16:55 8,1 C 6,3 C 7,5 C 7,8 C 6,9 C 0,0 C 79 % 81 % 1014,9 hPa 0,0 l/m 8,5 km/h (2 Bft) SW 225 0 min 4,7 C 5,2 C 9,0 km/h (2 Bft)
07.12.2019 17:00 8,0 C 6,5 C 7,5 C 7,7 C 7,2 C 0,0 C 80 % 81 % 1014,9 hPa 0,0 l/m 7,2 km/h (2 Bft) S 180 0 min 4,8 C 5,9 C 7,4 km/h (2 Bft)
07.12.2019 17:05 8,0 C 6,5 C 7,4 C 7,8 C 7,3 C 0,0 C 80 % 81 % 1014,9 hPa 0,0 l/m 6,8 km/h (2 Bft) S 180 0 min 4,8 C 6,1 C 10,5 km/h (2 Bft)
07.12.2019 17:10 8,0 C 6,5 C 7,4 C 7,9 C 7,8 C 0,0 C 80 % 81 % 1014,9 hPa 0,0 l/m 5,0 km/h (1 Bft) SW 225 0 min 4,8 C 7,3 C 7,7 km/h (2 Bft)
07.12.2019 17:15 8,1 C 6,5 C 7,5 C 8,0 C 7,8 C 0,0 C 80 % 81 % 1014,9 hPa 0,0 l/m 4,8 km/h (1 Bft) SW 225 0 min 4,9 C 7,3 C 11,9 km/h (2 Bft)
07.12.2019 17:20 8,1 C 6,5 C 7,4 C 7,9 C 7,6 C 0,0 C 80 % 81 % 1014,6 hPa 0,0 l/m 5,6 km/h (1 Bft) SW 225 0 min 4,9 C 6,8 C 5,1 km/h (1 Bft)
07.12.2019 17:25 8,0 C 6,5 C 7,4 C 7,9 C 7,6 C 0,0 C 80 % 81 % 1014,6 hPa 0,0 l/m 5,3 km/h (1 Bft) S 180 0 min 4,8 C 6,9 C 6,9 km/h (2 Bft)
07.12.2019 17:30 8,0 C 6,5 C 7,3 C 7,9 C 7,7 C 0,0 C 80 % 81 % 1014,6 hPa 0,0 l/m 5,1 km/h (1 Bft) W-SW 247 0 min 4,8 C 7,1 C 7,4 km/h (2 Bft)
07.12.2019 17:35 7,9 C 6,5 C 7,1 C 7,7 C 7,4 C 0,0 C 80 % 81 % 1014,6 hPa 0,0 l/m 5,1 km/h (1 Bft) S-SW 202 0 min 4,7 C 6,8 C 5,6 km/h (1 Bft)
07.12.2019 17:40 7,9 C 6,5 C 7,0 C 7,6 C 6,9 C 0,0 C 80 % 82 % 1014,6 hPa 0,0 l/m 5,3 km/h (1 Bft) SO 135 0 min 4,7 C 6,1 C 10,0 km/h (2 Bft)
07.12.2019 17:45 7,8 C 6,5 C 7,0 C 7,4 C 6,7 C 0,0 C 80 % 82 % 1014,6 hPa 0,0 l/m 6,6 km/h (2 Bft) S 180 0 min 4,6 C 5,5 C 11,3 km/h (2 Bft)
07.12.2019 17:50 7,7 C 6,5 C 7,1 C 7,4 C 6,7 C 0,0 C 80 % 82 % 1014,6 hPa 0,0 l/m 6,6 km/h (2 Bft) S 180 0 min 4,5 C 5,5 C 11,4 km/h (2 Bft)
07.12.2019 17:55 7,7 C 6,5 C 7,0 C 7,4 C 6,7 C 0,0 C 80 % 82 % 1014,6 hPa 0,0 l/m 6,6 km/h (2 Bft) SO 135 0 min 4,5 C 5,5 C 10,5 km/h (2 Bft)
07.12.2019 18:00 7,6 C 6,5 C 6,9 C 7,3 C 6,1 C 0,0 C 80 % 82 % 1014,6 hPa 0,0 l/m 8,5 km/h (2 Bft) S-SW 202 0 min 4,4 C 4,3 C 10,8 km/h (2 Bft)
07.12.2019 18:05 7,7 C 6,5 C 6,8 C 7,2 C 6,1 C 0,0 C 80 % 82 % 1014,6 hPa 0,0 l/m 8,5 km/h (2 Bft) S-SW 202 0 min 4,5 C 4,3 C 8,5 km/h (2 Bft)
07.12.2019 18:10 7,5 C 6,5 C 6,7 C 7,1 C 6,3 C 0,0 C 80 % 82 % 1014,6 hPa 0,0 l/m 6,9 km/h (2 Bft) W-SW 247 0 min 4,3 C 5,0 C 8,4 km/h (2 Bft)
07.12.2019 18:15 7,4 C 6,5 C 6,7 C 7,0 C 6,2 C 0,0 C 80 % 82 % 1014,6 hPa 0,0 l/m 6,8 km/h (2 Bft) W 270 0 min 4,2 C 4,9 C 9,2 km/h (2 Bft)
07.12.2019 18:20 7,5 C 6,5 C 6,6 C 7,1 C 6,2 C 0,0 C 80 % 82 % 1014,9 hPa 0,0 l/m 6,6 km/h (2 Bft) S-SW 202 0 min 4,3 C 4,9 C 9,5 km/h (2 Bft)
07.12.2019 18:25 7,3 C 6,5 C 6,7 C 7,0 C 6,3 C 0,0 C 80 % 82 % 1014,9 hPa 0,0 l/m 6,0 km/h (2 Bft) O-NO 67 0 min 4,1 C 5,2 C 4,2 km/h (1 Bft)
07.12.2019 18:30 7,3 C 6,5 C 6,6 C 7,0 C 6,3 C 0,0 C 80 % 82 % 1014,9 hPa 0,0 l/m 6,0 km/h (2 Bft) SW 225 0 min 4,1 C 5,2 C 12,9 km/h (3 Bft)
07.12.2019 18:35 7,2 C 6,5 C 6,6 C 7,0 C 6,6 C 0,0 C 80 % 82 % 1014,9 hPa 0,0 l/m 5,3 km/h (1 Bft) O 90 0 min 4,0 C 5,8 C 6,9 km/h (2 Bft)
07.12.2019 18:40 7,2 C 6,5 C 6,6 C 7,1 C 6,8 C 0,0 C 81 % 82 % 1014,9 hPa 0,0 l/m 4,3 km/h (1 Bft) O-SO 112 0 min 4,2 C 6,8 C 6,0 km/h (2 Bft)
07.12.2019 18:45 7,2 C 6,5 C 6,5 C 7,2 C 7,1 C 0,0 C 81 % 82 % 1014,9 hPa 0,0 l/m 3,9 km/h (1 Bft) SO 135 0 min 4,2 C 7,1 C 5,0 km/h (1 Bft)
07.12.2019 18:50 7,1 C 6,5 C 6,5 C 7,2 C 7,2 C 0,1 C 81 % 82 % 1014,9 hPa 0,0 l/m 3,5 km/h (1 Bft) W 270 0 min 4,1 C 7,2 C 2,4 km/h (1 Bft)
07.12.2019 18:55 7,1 C 6,5 C 6,5 C 7,1 C 7,1 C 0,0 C 81 % 82 % 1014,9 hPa 0,0 l/m 3,9 km/h (1 Bft) S-SW 202 0 min 4,1 C 7,1 C 4,3 km/h (1 Bft)
07.12.2019 19:00 7,1 C 6,5 C 6,5 C 7,1 C 7,1 C 0,0 C 81 % 82 % 1015,1 hPa 0,0 l/m 3,7 km/h (1 Bft) S-SO 157 0 min 4,1 C 7,1 C 7,4 km/h (2 Bft)
07.12.2019 19:05 7,1 C 6,5 C 6,6 C 7,3 C 7,3 C 0,2 C 81 % 82 % 1015,1 hPa 0,0 l/m 3,5 km/h (1 Bft) SO 135 0 min 4,1 C 7,3 C 7,7 km/h (2 Bft)
07.12.2019 19:10 7,1 C 6,5 C 6,6 C 7,1 C 7,0 C 0,0 C 81 % 82 % 1015,1 hPa 0,0 l/m 4,0 km/h (1 Bft) W-NW 292 0 min 4,1 C 7,0 C 8,4 km/h (2 Bft)
07.12.2019 19:15 7,1 C 6,6 C 6,6 C 6,9 C 6,6 C 0,0 C 81 % 82 % 1015,1 hPa 0,0 l/m 5,1 km/h (1 Bft) SW 225 0 min 4,1 C 5,9 C 9,5 km/h (2 Bft)
07.12.2019 19:20 7,2 C 6,5 C 6,6 C 6,8 C 6,0 C 0,0 C 82 % 82 % 1015,4 hPa 0,0 l/m 7,1 km/h (2 Bft) S-SW 202 0 min 4,3 C 4,5 C 7,4 km/h (2 Bft)
07.12.2019 19:25 7,2 C 6,6 C 6,6 C 6,8 C 6,0 C 0,0 C 82 % 83 % 1015,4 hPa 0,0 l/m 7,7 km/h (2 Bft) SW 225 0 min 4,3 C 4,4 C 9,3 km/h (2 Bft)
07.12.2019 19:30 7,3 C 6,6 C 6,6 C 6,9 C 6,0 C 0,0 C 82 % 83 % 1015,4 hPa 0,0 l/m 7,7 km/h (2 Bft) W-SW 247 0 min 4,4 C 4,4 C 8,5 km/h (2 Bft)
07.12.2019 19:35 7,2 C 6,6 C 6,6 C 7,0 C 6,1 C 0,0 C 82 % 83 % 1015,4 hPa 0,0 l/m 7,9 km/h (2 Bft) SW 225 0 min 4,3 C 4,5 C 11,4 km/h (2 Bft)
07.12.2019 19:40 7,2 C 6,6 C 6,7 C 7,0 C 6,2 C 0,0 C 81 % 82 % 1015,9 hPa 0,0 l/m 8,0 km/h (2 Bft) S-SW 202 0 min 4,2 C 4,5 C 10,3 km/h (2 Bft)
07.12.2019 19:45 7,2 C 6,6 C 6,7 C 6,9 C 6,2 C 0,0 C 81 % 82 % 1015,9 hPa 0,0 l/m 8,0 km/h (2 Bft) SW 225 0 min 4,2 C 4,5 C 7,1 km/h (2 Bft)
07.12.2019 19:50 7,3 C 6,6 C 6,7 C 6,9 C 6,2 C 0,0 C 81 % 82 % 1015,9 hPa 0,0 l/m 8,0 km/h (2 Bft) SW 225 0 min 4,3 C 4,5 C 10,8 km/h (2 Bft)
07.12.2019 19:55 7,3 C 6,6 C 6,7 C 6,9 C 6,2 C 0,0 C 81 % 82 % 1015,9 hPa 0,0 l/m 7,9 km/h (2 Bft) S-SW 202 0 min 4,3 C 4,6 C 9,5 km/h (2 Bft)
07.12.2019 20:00 7,5 C 6,6 C 6,7 C 7,2 C 6,3 C 0,0 C 81 % 82 % 1016,2 hPa 0,0 l/m 7,9 km/h (2 Bft) NO 45 0 min 4,5 C 4,7 C 8,2 km/h (2 Bft)
07.12.2019 20:05 7,4 C 6,6 C 6,7 C 7,0 C 6,3 C 0,0 C 81 % 82 % 1016,2 hPa 0,0 l/m 8,0 km/h (2 Bft) W-SW 247 0 min 4,4 C 4,7 C 7,7 km/h (2 Bft)
07.12.2019 20:10 7,5 C 6,6 C 6,8 C 7,2 C 6,6 C 0,0 C 81 % 82 % 1016,2 hPa 0,0 l/m 7,1 km/h (2 Bft) SW 225 0 min 4,5 C 5,2 C 9,0 km/h (2 Bft)
07.12.2019 20:15 7,5 C 6,6 C 6,8 C 7,2 C 6,6 C 0,0 C 81 % 82 % 1016,2 hPa 0,0 l/m 7,1 km/h (2 Bft) SW 225 0 min 4,5 C 5,2 C 8,9 km/h (2 Bft)
07.12.2019 20:20 7,5 C 6,6 C 6,7 C 7,1 C 6,4 C 0,0 C 81 % 82 % 1016,2 hPa 0,0 l/m 7,6 km/h (2 Bft) S 180 0 min 4,5 C 4,9 C 12,4 km/h (3 Bft)
07.12.2019 20:25 7,5 C 6,6 C 6,7 C 7,1 C 6,4 C 0,0 C 81 % 82 % 1016,2 hPa 0,0 l/m 7,6 km/h (2 Bft) N 360 0 min 4,5 C 4,9 C 12,4 km/h (3 Bft)
07.12.2019 20:30 7,5 C 6,6 C 6,7 C 7,3 C 6,3 C 0,0 C 81 % 82 % 1016,2 hPa 0,0 l/m 7,9 km/h (2 Bft) S-SW 202 0 min 4,5 C 4,7 C 13,4 km/h (3 Bft)
07.12.2019 20:35 7,5 C 6,6 C 6,7 C 7,1 C 6,4 C 0,0 C 81 % 82 % 1016,2 hPa 0,0 l/m 7,6 km/h (2 Bft) SW 225 0 min 4,5 C 4,9 C 6,9 km/h (2 Bft)
07.12.2019 20:40 7,4 C 6,6 C 6,7 C 7,0 C 6,3 C 0,0 C 81 % 82 % 1016,3 hPa 0,0 l/m 7,6 km/h (2 Bft) N-NO 22 0 min 4,4 C 4,8 C 7,4 km/h (2 Bft)
07.12.2019 20:45 7,4 C 6,6 C 6,7 C 7,1 C 6,4 C 0,0 C 81 % 82 % 1016,3 hPa 0,0 l/m 7,1 km/h (2 Bft) SW 225 0 min 4,4 C 5,0 C 8,0 km/h (2 Bft)
07.12.2019 20:50 7,4 C 6,6 C 6,7 C 7,1 C 6,6 C 0,0 C 81 % 82 % 1016,3 hPa 0,0 l/m 6,6 km/h (2 Bft) SW 225 0 min 4,4 C 5,4 C 11,6 km/h (2 Bft)
07.12.2019 20:55 7,3 C 6,6 C 6,7 C 7,0 C 6,5 C 0,0 C 81 % 82 % 1016,3 hPa 0,0 l/m 6,8 km/h (2 Bft) SO 135 0 min 4,3 C 5,2 C 10,6 km/h (2 Bft)
07.12.2019 21:00 7,3 C 6,6 C 6,7 C 7,1 C 6,6 C 0,0 C 81 % 82 % 1016,0 hPa 0,0 l/m 6,6 km/h (2 Bft) NW 315 0 min 4,3 C 5,4 C 4,5 km/h (1 Bft)
07.12.2019 21:05 7,3 C 6,6 C 6,7 C 7,1 C 6,6 C 0,0 C 80 % 82 % 1016,0 hPa 0,0 l/m 6,3 km/h (2 Bft) SW 225 0 min 4,1 C 5,5 C 3,5 km/h (1 Bft)
07.12.2019 21:10 7,3 C 6,6 C 6,7 C 7,1 C 6,7 C 0,0 C 81 % 82 % 1016,0 hPa 0,0 l/m 6,1 km/h (2 Bft) SW 225 0 min 4,3 C 5,6 C 6,1 km/h (2 Bft)
07.12.2019 21:15 7,3 C 6,6 C 6,6 C 7,1 C 6,7 C 0,0 C 81 % 82 % 1016,0 hPa 0,0 l/m 5,5 km/h (1 Bft) O-SO 112 0 min 4,3 C 5,8 C 4,3 km/h (1 Bft)
07.12.2019 21:20 7,3 C 6,6 C 6,6 C 7,1 C 6,8 C 0,0 C 81 % 82 % 1016,2 hPa 0,0 l/m 4,8 km/h (1 Bft) SW 225 0 min 4,3 C 6,2 C 6,9 km/h (2 Bft)
07.12.2019 21:25 7,3 C 6,6 C 6,6 C 7,2 C 6,9 C 0,0 C 81 % 82 % 1016,2 hPa 0,0 l/m 4,5 km/h (1 Bft) S 180 0 min 4,3 C 6,9 C 10,5 km/h (2 Bft)
07.12.2019 21:30 7,3 C 6,6 C 6,7 C 7,1 C 6,8 C 0,0 C 81 % 82 % 1016,2 hPa 0,0 l/m 5,3 km/h (1 Bft) N 360 0 min 4,3 C 6,0 C 6,9 km/h (2 Bft)
07.12.2019 21:35 7,3 C 6,6 C 6,6 C 7,1 C 6,7 C 0,0 C 81 % 82 % 1016,2 hPa 0,0 l/m 5,3 km/h (1 Bft) S 180 0 min 4,3 C 5,9 C 4,0 km/h (1 Bft)
07.12.2019 21:40 7,3 C 6,6 C 6,5 C 7,0 C 6,5 C 0,0 C 80 % 82 % 1016,2 hPa 0,0 l/m 5,5 km/h (1 Bft) W-SW 247 0 min 4,1 C 5,6 C 8,9 km/h (2 Bft)
07.12.2019 21:45 7,2 C 6,6 C 6,5 C 6,9 C 6,2 C 0,0 C 80 % 82 % 1016,2 hPa 0,0 l/m 6,3 km/h (2 Bft) SW 225 0 min 4,0 C 5,0 C 9,2 km/h (2 Bft)
07.12.2019 21:50 7,2 C 6,6 C 6,4 C 6,8 C 6,1 C 0,0 C 80 % 82 % 1016,2 hPa 0,0 l/m 6,8 km/h (2 Bft) S-SO 157 0 min 4,0 C 4,7 C 8,9 km/h (2 Bft)
07.12.2019 21:55 7,2 C 6,6 C 6,4 C 6,8 C 6,1 C 0,0 C 80 % 82 % 1016,2 hPa 0,0 l/m 6,8 km/h (2 Bft) S 180 0 min 4,0 C 4,7 C 11,7 km/h (2 Bft)
07.12.2019 22:00 7,3 C 6,6 C 6,3 C 6,9 C 6,1 C 0,0 C 80 % 82 % 1015,8 hPa 0,0 l/m 6,6 km/h (2 Bft) SW 225 0 min 4,1 C 4,8 C 7,2 km/h (2 Bft)
07.12.2019 22:05 7,2 C 6,6 C 6,3 C 6,8 C 6,1 C 0,0 C 80 % 82 % 1015,8 hPa 0,0 l/m 6,3 km/h (2 Bft) S-SW 202 0 min 4,0 C 4,9 C 9,5 km/h (2 Bft)
07.12.2019 22:10 7,2 C 6,6 C 6,3 C 6,9 C 6,2 C 0,0 C 80 % 82 % 1015,8 hPa 0,0 l/m 5,8 km/h (2 Bft) S 180 0 min 4,0 C 5,2 C 12,6 km/h (3 Bft)
07.12.2019 22:15 7,2 C 6,6 C 6,3 C 6,9 C 6,2 C 0,0 C 80 % 82 % 1015,8 hPa 0,0 l/m 5,8 km/h (2 Bft) SW 225 0 min 4,0 C 5,2 C 7,2 km/h (2 Bft)
07.12.2019 22:20 7,1 C 6,6 C 6,3 C 6,7 C 6,0 C 0,0 C 80 % 82 % 1015,9 hPa 0,0 l/m 6,4 km/h (2 Bft) SO 135 0 min 3,9 C 4,7 C 10,8 km/h (2 Bft)
07.12.2019 22:25 7,1 C 6,6 C 6,1 C 6,7 C 5,9 C 0,0 C 80 % 82 % 1015,9 hPa 0,0 l/m 6,3 km/h (2 Bft) S-SW 202 0 min 3,9 C 4,7 C 9,0 km/h (2 Bft)
07.12.2019 22:30 7,1 C 6,6 C 6,0 C 6,6 C 5,7 C 0,0 C 80 % 82 % 1015,9 hPa 0,0 l/m 6,1 km/h (2 Bft) S 180 0 min 3,9 C 4,5 C 6,3 km/h (2 Bft)
07.12.2019 22:35 7,1 C 6,6 C 6,0 C 6,8 C 6,2 C 0,0 C 80 % 82 % 1015,9 hPa 0,0 l/m 4,8 km/h (1 Bft) O-SO 112 0 min 3,9 C 5,5 C 2,7 km/h (1 Bft)
07.12.2019 22:40 6,9 C 6,6 C 6,0 C 6,9 C 6,8 C 0,0 C 80 % 82 % 1015,9 hPa 0,0 l/m 2,9 km/h (1 Bft) W-SW 247 0 min 3,7 C 6,8 C 3,2 km/h (1 Bft)
07.12.2019 22:45 6,9 C 6,6 C 6,0 C 6,8 C 6,6 C 0,0 C 80 % 82 % 1015,9 hPa 0,0 l/m 1,8 km/h (1 Bft) SO 135 0 min 3,7 C 6,6 C 2,1 km/h (1 Bft)
07.12.2019 22:50 6,8 C 6,6 C 5,9 C 6,7 C 6,5 C 0,0 C 80 % 82 % 1015,9 hPa 0,0 l/m 2,3 km/h (1 Bft) W-SW 247 0 min 3,6 C 6,5 C 2,7 km/h (1 Bft)
07.12.2019 22:55 6,8 C 6,6 C 5,9 C 6,7 C 6,4 C 0,0 C 80 % 82 % 1015,9 hPa 0,0 l/m 2,6 km/h (1 Bft) S-SW 202 0 min 3,6 C 6,4 C 6,1 km/h (2 Bft)
07.12.2019 23:00 6,8 C 6,6 C 5,9 C 6,7 C 6,4 C 0,0 C 80 % 82 % 1015,8 hPa 0,0 l/m 3,4 km/h (1 Bft) W-SW 247 0 min 3,6 C 6,4 C 5,5 km/h (1 Bft)
07.12.2019 23:05 6,9 C 6,6 C 5,9 C 6,6 C 6,1 C 0,0 C 80 % 82 % 1015,8 hPa 0,0 l/m 4,5 km/h (1 Bft) SW 225 0 min 3,7 C 6,1 C 6,4 km/h (2 Bft)
07.12.2019 23:10 6,9 C 6,6 C 6,0 C 6,6 C 5,9 C 0,0 C 80 % 82 % 1015,8 hPa 0,0 l/m 5,5 km/h (1 Bft) SW 225 0 min 3,7 C 4,9 C 8,7 km/h (2 Bft)
07.12.2019 23:15 6,9 C 6,6 C 6,0 C 6,6 C 5,9 C 0,0 C 79 % 82 % 1015,8 hPa 0,0 l/m 6,0 km/h (2 Bft) S 180 0 min 3,5 C 4,8 C 8,5 km/h (2 Bft)
07.12.2019 23:20 6,9 C 6,5 C 6,1 C 6,7 C 6,3 C 0,0 C 79 % 81 % 1015,8 hPa 0,0 l/m 5,1 km/h (1 Bft) N 360 0 min 3,5 C 5,5 C 2,6 km/h (1 Bft)
07.12.2019 23:25 6,9 C 6,5 C 6,1 C 6,7 C 6,3 C 0,0 C 79 % 81 % 1015,8 hPa 0,0 l/m 4,7 km/h (1 Bft) SO 135 0 min 3,5 C 5,7 C 3,9 km/h (1 Bft)
07.12.2019 23:30 6,9 C 6,5 C 6,0 C 6,7 C 6,4 C 0,0 C 79 % 81 % 1015,8 hPa 0,0 l/m 4,2 km/h (1 Bft) S-SO 157 0 min 3,5 C 6,4 C 7,6 km/h (2 Bft)
07.12.2019 23:35 6,9 C 6,5 C 6,0 C 6,7 C 6,3 C 0,0 C 79 % 81 % 1015,8 hPa 0,0 l/m 4,3 km/h (1 Bft) W-SW 247 0 min 3,5 C 6,3 C 5,6 km/h (1 Bft)
07.12.2019 23:40 6,9 C 6,5 C 6,1 C 6,7 C 6,3 C 0,0 C 79 % 81 % 1015,5 hPa 0,0 l/m 4,7 km/h (1 Bft) S-SW 202 0 min 3,5 C 5,7 C 7,4 km/h (2 Bft)
07.12.2019 23:45 6,9 C 6,5 C 6,1 C 6,7 C 6,2 C 0,0 C 78 % 80 % 1015,5 hPa 0,0 l/m 5,3 km/h (1 Bft) S 180 0 min 3,3 C 5,3 C 9,3 km/h (2 Bft)
07.12.2019 23:50 7,0 C 6,5 C 6,1 C 6,8 C 6,3 C 0,0 C 78 % 80 % 1015,5 hPa 0,0 l/m 5,3 km/h (1 Bft) W-SW 247 0 min 3,4 C 5,5 C 9,0 km/h (2 Bft)
07.12.2019 23:55 7,1 C 6,5 C 6,1 C 6,9 C 6,6 C 0,0 C 78 % 80 % 1015,5 hPa 0,0 l/m 4,7 km/h (1 Bft) O-NO 67 0 min 3,5 C 6,0 C 1,9 km/h (1 Bft)
_ Min-Zeit 01:20 00:00 01:15 01:20 00:50 00:00 13:35 13:20 02:00 - 22:45 - - - 00:50 00:50 23:55
Minimum _ 4,9 C 5,1 C 3,9 C 4,0 C 1,6 C 0,0 C 74 % 77 % 1007,9 hPa - 1,8 km/h (1 Bft) - - - 2,3 C -1,6 C 1,9 km/h (1 Bft)
_ Max-Zeit 12:55 19:15 12:30 12:20 12:20 19:05 01:55 01:45 20:40 00:55 11:25 - - 00:00 12:25 12:15 01:05
Maximum _ 9,5 C 6,6 C 9,1 C 9,4 C 9,0 C 0,2 C 86 % 89 % 1016,3 hPa 0,7 l/m 13,4 km/h
SW (3 Bft)
- - 0 min 5,8 C 7,6 C 31,2 km/h
S-SO (5 Bft)
Durchschnitt _ 7,5 C 6,0 C 6,7 C 7,1 C 6,3 C 0,0 C 81 % 83 % 1012,0 hPa #2,1 l/m 8,1 km/h (2 Bft) SW - #0 min. 4,3 C 4,7 C 10,5 km/h (2 Bft)
2019 www.wetterstation-wechselburg.de